San Jose, CA

6:07 PM PDT on March 27, 2017 (GMT -0700)
San Jose International

Weather History for KSJC - October, 2012

Change the Weather History Date:

Sunday, October 7, 2012

  Actual Average Record
Temperature  
Mean Temperature 61 °F 65 °F  
Max Temperature 73 °F 77 °F 94 °F (1996)
Min Temperature 48 °F 54 °F 42 °F (1895)
Degree Days  
Heating Degree Days 4 2  
Month to date heating degree days 8 9  
Since 1 July heating degree days 32 28  
Cooling Degree Days 0 2  
Month to date cooling degree days 35 15  
Year to date cooling degree days 479 614  
Growing Degree Days 10 (Base 50)    
Moisture  
Dew Point 49 °F    
Average Humidity 69    
Maximum Humidity 100    
Minimum Humidity 38    
Precipitation  
Precipitation 0.00 in 0.02 in 1.00 in (1973)
Month to date precipitation 0.00 0.11  
Year to date precipitation 5.55 10.84  
Since 1 July precipitation 0.01  
Sea Level Pressure  
Sea Level Pressure 29.99 in    
Wind  
Wind Speed 5 mph (NW)    
Max Wind Speed 20 mph    
Max Gust Speed 23 mph    
Visibility 10 miles    
Events      
T = Trace of Precipitation, MM = Missing Value Source: NWS Daily Summary

Daily Weather History Graph

Daily Weather History Graph

Search for Another Location

Airport or City:

Trip Planner

Search our weather history database for the weather conditions in past years. The results will help you decide how hot, cold, wet, or windy it might be!

Date:

Astronomy

Oct. 07, 2012 Rise Set
Actual Time 7:08 AM PDT 6:41 PM PDT
Civil Twilight 6:42 AM PDT 7:07 PM PDT
Nautical Twilight 6:12 AM PDT 7:37 PM PDT
Astronomical Twilight 5:42 AM PDT 8:07 PM PDT
Moon No Moon Rise 1:44 PM PDT (10/7)
Length of Visible Light 12h 24m
Length of Day
11h 32m
Waning Gibbous, 55% of the Moon is Illuminated
Oct 7
Waning Gibbous
Oct 8
Last Quarter
Oct 15
New
Oct 21
First Quarter
Oct 29
Full

Hourly Weather History & Observations

Time (PDT) Temp. Dew Point Humidity Pressure Visibility Wind Dir Wind Speed Gust Speed Precip Events Conditions
12:53 AM 55.9 °F 51.1 °F 84% 30.00 in 10.0 mi NW 4.6 mph - N/A   Clear
1:53 AM 54.0 °F 48.0 °F 80% 30.00 in 10.0 mi Calm Calm - N/A   Clear
2:53 AM 53.1 °F 48.0 °F 83% 30.00 in 10.0 mi Calm Calm - N/A   Clear
3:53 AM 52.0 °F 48.0 °F 86% 30.00 in 10.0 mi Calm Calm - N/A   Clear
4:53 AM 51.1 °F 48.0 °F 89% 29.99 in 10.0 mi Calm Calm - N/A   Clear
5:53 AM 50.0 °F 46.9 °F 89% 29.99 in 10.0 mi SE 3.5 mph - N/A   Clear
6:53 AM 48.9 °F 48.0 °F 97% 30.01 in 10.0 mi Calm Calm - N/A   Clear
7:53 AM 50.0 °F 48.9 °F 96% 30.02 in 10.0 mi Calm Calm - N/A   Clear
8:53 AM 54.0 °F 48.9 °F 83% 30.03 in 10.0 mi Calm Calm - N/A   Clear
9:53 AM 60.8 °F 50.0 °F 68% 30.03 in 10.0 mi Calm Calm - N/A   Clear
10:53 AM 63.0 °F 50.0 °F 63% 30.01 in 10.0 mi Calm Calm - N/A   Clear
11:53 AM 66.9 °F 48.9 °F 52% 30.00 in 10.0 mi Variable 4.6 mph - N/A   Clear
12:53 PM 69.1 °F 46.0 °F 44% 29.98 in 10.0 mi NW 10.4 mph - N/A   Clear
1:53 PM 71.1 °F 45.0 °F 39% 29.96 in 10.0 mi NNW 10.4 mph - N/A   Clear
2:53 PM 73.0 °F 48.9 °F 42% 29.95 in 10.0 mi NW 13.8 mph - N/A   Clear
3:53 PM 72.0 °F 48.0 °F 43% 29.94 in 10.0 mi WNW 13.8 mph - N/A   Clear
4:53 PM 70.0 °F 48.9 °F 47% 29.94 in 10.0 mi NW 13.8 mph - N/A   Clear
5:53 PM 64.9 °F 50.0 °F 58% 29.95 in 10.0 mi NW 15.0 mph - N/A   Clear
6:53 PM 63.0 °F 51.1 °F 65% 29.96 in 10.0 mi NW 11.5 mph - N/A   Clear
7:53 PM 62.1 °F 51.1 °F 67% 29.98 in 10.0 mi NW 10.4 mph - N/A   Clear
8:53 PM 60.1 °F 51.1 °F 72% 30.00 in 10.0 mi NNW 9.2 mph - N/A   Clear
9:53 PM 59.0 °F 52.0 °F 78% 30.00 in 10.0 mi NW 5.8 mph - N/A   Clear
10:53 PM 59.0 °F 52.0 °F 78% 30.01 in 10.0 mi NNW 4.6 mph - N/A   Clear
11:53 PM 57.0 °F 51.1 °F 81% 30.02 in 10.0 mi Calm Calm - N/A   Clear